Location: Czu?�w
(50.1404°N, 18.9919°E)
Time: 03:15:04
(UTC+00:00)

Cosmos 1354 Rocket - Pass Details

Date: 27 October 2020
Orbit: 764 x 783 km, 74.0° (Epoch: 27 November)

Event Time Altitude Azimuth Distance (km) Brightness Sun altitude
Rises 16:56:29 0° 338° (NNW) 3,247 7.5 -14.6°
Reaches altitude 10° 16:58:57 10° 345° (NNW) 2,319 6.6 -15.0°
Maximum altitude 17:04:02 47° 59° (ENE) 1,018 4.3 -15.8°
Enters shadow 17:07:27 20° 125° (SE) 1,739 5.4 -16.3°
